Location: Le Pont-de-Coulogne
(50.9242°N, 1.8700°E)
Time: 11:27:57
(UTC+00:00)

CZ-2C R/B - Pass Details

Date: 15 May 2026
Orbit: 782 x 867 km, 98.4° (Epoch: 9 June)

Event Time Altitude Azimuth Distance (km) Brightness Sun altitude
Exits shadow 22:39:10 14° 107° (ESE) 2,135 4.5 -18.4°
Maximum altitude 22:42:34 25° 59° (ENE) 1,559 4.2 -18.5°
Drops below altitude 10° 22:46:44 10° 6° (N) 2,361 6.1 -18.7°
Sets 22:49:23 0° 353° (N) 3,288 7.4 -18.8°
